| time (UTC) | temp F | wind direction | speed knots | gust knots | rain 1hr in | rain 24hr in | rain mn in | humidity % | barometer mb |
| 20260902050038 | 69 | 0 | 0.0 | 0.0 | 0.00 | 0.73 | 0.00 | 66 | 1018.2 |
| 20260902044535 | 69 | 0 | 0.0 | 0.0 | 0.00 | 0.73 | 0.00 | 66 | 1018.2 |
| 20260902034537 | 68 | 0 | 0.0 | 0.0 | 0.00 | 0.73 | 0.73 | 66 | 1017.5 |
| 20260902033042 | 68 | 0 | 0.0 | 0.0 | 0.00 | 0.73 | 0.73 | 66 | 1017.2 |
| 20260902024538 | 68 | 0 | 0.0 | 0.0 | 0.00 | 0.73 | 0.73 | 65 | 1016.6 |
| 20260902014538 | 69 | 0 | 0.0 | 0.9 | 0.01 | 0.73 | 0.73 | 65 | 1015.8 |
| 20260902003039 | 70 | 0 | 0.0 | 0.9 | 0.00 | 0.72 | 0.72 | 65 | 1015.8 |
| 20260901233036 | 70 | 0 | 0.0 | 0.0 | 0.30 | 0.72 | 0.72 | 63 | 1014.5 |
| 20260901224539 | 71 | 0 | 0.0 | 0.9 | 0.58 | 0.60 | 0.60 | 66 | 1014.6 |
| 20260901223039 | 75 | 238 | 0.0 | 7.8 | 0.39 | 0.40 | 0.40 | 59 | 1015.3 |
| 20260901221602 | 79 | 114 | 0.0 | 0.9 | 0.00 | 0.01 | 0.01 | 63 | 1014.3 |
| 20260901220038 | 81 | 0 | 0.0 | 0.0 | 0.00 | 0.01 | 0.01 | 62 | 1014.2 |
| 20260901214538 | 82 | 0 | 0.0 | 0.0 | 0.00 | 0.01 | 0.01 | 59 | 1014.1 |
| 20260901213057 | 85 | 0 | 0.0 | 0.0 | 0.00 | 0.01 | 0.01 | 57 | 1013.8 |
| 20260901211542 | 87 | 0 | 0.0 | 0.9 | 0.00 | 0.01 | 0.01 | 52 | 1013.9 |
| 20260901210038 | 89 | 0 | 0.0 | 1.7 | 0.00 | 0.01 | 0.01 | 48 | 1013.9 |
| 20260901204539 | 90 | 165 | 0.0 | 0.9 | 0.00 | 0.01 | 0.01 | 48 | 1013.7 |
| 20260901203043 | 91 | 0 | 0.0 | 1.7 | 0.00 | 0.01 | 0.01 | 46 | 1014.0 |
| 20260901201537 | 90 | 0 | 0.0 | 2.6 | 0.00 | 0.01 | 0.01 | 43 | 1014.1 |
| 20260901200049 | 89 | 158 | 0.0 | 3.5 | 0.00 | 0.01 | 0.01 | 46 | 1014.1 |
| 20260901194537 | 89 | 123 | 0.0 | 5.2 | 0.00 | 0.05 | 0.01 | 45 | 1014.2 |
| 20260901193048 | 87 | 0 | 0.0 | 2.6 | 0.00 | 0.05 | 0.01 | 46 | 1014.3 |
| 20260901191539 | 85 | 0 | 0.0 | 0.9 | 0.00 | 0.05 | 0.01 | 49 | 1014.5 |
| 20260901190035 | 86 | 0 | 0.0 | 0.9 | 0.00 | 0.05 | 0.01 | 47 | 1014.6 |
| 20260901184541 | 86 | 0 | 0.0 | 0.9 | 0.00 | 0.05 | 0.01 | 47 | 1014.7 |
| 20260901183040 | 85 | 0 | 0.0 | 0.9 | 0.00 | 0.05 | 0.01 | 50 | 1014.9 |
| 20260901181539 | 85 | 112 | 0.0 | 0.9 | 0.00 | 0.05 | 0.01 | 50 | 1015.0 |
| 20260901180035 | 86 | 0 | 0.0 | 0.9 | 0.00 | 0.05 | 0.01 | 49 | 1014.8 |
| 20260901174537 | 85 | 0 | 0.0 | 1.7 | 0.00 | 0.05 | 0.01 | 49 | 1014.7 |
| 20260901173039 | 85 | 201 | 0.0 | 1.7 | 0.00 | 0.05 | 0.01 | 48 | 1014.8 |
| 20260901171537 | 83 | 0 | 0.0 | 2.6 | 0.00 | 0.05 | 0.01 | 52 | 1015.0 |
| 20260901170040 | 85 | 205 | 0.0 | 1.7 | 0.00 | 0.05 | 0.01 | 52 | 1015.1 |
| 20260901164535 | 84 | 203 | 0.9 | 1.7 | 0.00 | 0.05 | 0.01 | 49 | 1015.2 |
| 20260901163039 | 82 | 0 | 0.0 | 0.9 | 0.00 | 0.05 | 0.01 | 53 | 1015.6 |
| 20260901161540 | 80 | 242 | 0.0 | 1.7 | 0.00 | 0.05 | 0.01 | 56 | 1015.7 |
| 20260901160037 | 79 | 212 | 0.0 | 0.9 | 0.00 | 0.05 | 0.01 | 56 | 1015.8 |
| 20260901154534 | 78 | 0 | 0.0 | 0.9 | 0.00 | 0.05 | 0.01 | 58 | 1016.0 |
| 20260901153036 | 76 | 143 | 0.0 | 0.9 | 0.00 | 0.05 | 0.01 | 60 | 1016.1 |
| 20260901151536 | 75 | 0 | 0.0 | 0.0 | 0.00 | 0.05 | 0.01 | 60 | 1016.1 |
| 20260901150039 | 74 | 0 | 0.0 | 0.0 | 0.00 | 0.05 | 0.01 | 61 | 1016.2 |
| 20260901144538 | 74 | 0 | 0.0 | 0.0 | 0.00 | 0.05 | 0.01 | 60 | 1016.0 |
| 20260901143039 | 74 | 0 | 0.0 | 0.0 | 0.00 | 0.05 | 0.01 | 61 | 1016.2 |
| 20260901141542 | 74 | 0 | 0.0 | 0.0 | 0.00 | 0.05 | 0.01 | 61 | 1016.2 |
| 20260901140037 | 73 | 0 | 0.0 | 0.0 | 0.00 | 0.05 | 0.01 | 62 | 1016.4 |
| 20260901134537 | 72 | 0 | 0.0 | 0.0 | 0.00 | 0.05 | 0.01 | 63 | 1016.2 |
| 20260901133041 | 71 | 0 | 0.0 | 0.0 | 0.00 | 0.05 | 0.01 | 64 | 1016.2 |
| 20260901131537 | 71 | 0 | 0.0 | 0.9 | 0.00 | 0.05 | 0.01 | 66 | 1016.1 |
| 20260901130038 | 70 | 0 | 0.0 | 0.0 | 0.00 | 0.05 | 0.01 | 66 | 1016.3 |
| 20260901124538 | 69 | 0 | 0.0 | 0.0 | 0.00 | 0.05 | 0.01 | 66 | 1016.5 |
| 20260901123037 | 68 | 0 | 0.0 | 0.9 | 0.00 | 0.05 | 0.01 | 66 | 1016.4 |
| 20260901121540 | 67 | 0 | 0.0 | 0.0 | 0.00 | 0.05 | 0.01 | 67 | 1016.5 |
| 20260901120044 | 67 | 0 | 0.0 | 0.0 | 0.00 | 0.05 | 0.01 | 67 | 1016.7 |
| 20260901114542 | 66 | 0 | 0.0 | 0.0 | 0.00 | 0.05 | 0.01 | 67 | 1016.4 |
| 20260901113037 | 66 | 0 | 0.0 | 0.0 | 0.00 | 0.05 | 0.01 | 67 | 1016.4 |
| 20260901111537 | 65 | 0 | 0.0 | 0.0 | 0.00 | 0.05 | 0.01 | 67 | 1016.4 |
| 20260901110040 | 65 | 0 | 0.0 | 0.0 | 0.00 | 0.05 | 0.01 | 67 | 1016.0 |
| 20260901104535 | 65 | 0 | 0.0 | 0.0 | 0.00 | 0.05 | 0.01 | 67 | 1016.6 |
| 20260901103041 | 65 | 0 | 0.0 | 0.0 | 0.00 | 0.05 | 0.01 | 67 | 1016.5 |
| 20260901101534 | 65 | 0 | 0.0 | 0.0 | 0.00 | 0.05 | 0.01 | 67 | 1016.7 |
| 20260901100038 | 65 | 0 | 0.0 | 0.0 | 0.00 | 0.05 | 0.01 | 67 | 1016.7 |
| 20260901094537 | 65 | 0 | 0.0 | 0.0 | 0.00 | 0.05 | 0.01 | 67 | 1016.8 |
| 20260901093036 | 65 | 0 | 0.0 | 0.0 | 0.00 | 0.05 | 0.01 | 67 | 1016.8 |
| 20260901091536 | 65 | 0 | 0.0 | 0.0 | 0.00 | 0.05 | 0.01 | 66 | 1016.8 |
| 20260901090034 | 65 | 0 | 0.0 | 0.0 | 0.00 | 0.05 | 0.01 | 67 | 1016.6 |
| 20260901084539 | 65 | 0 | 0.0 | 0.0 | 0.00 | 0.05 | 0.01 | 67 | 1016.8 |
| 20260901083038 | 65 | 0 | 0.0 | 0.0 | 0.00 | 0.05 | 0.01 | 66 | 1017.0 |
| 20260901081544 | 65 | 0 | 0.0 | 0.0 | 0.00 | 0.05 | 0.01 | 66 | 1017.1 |
| 20260901080036 | 65 | 0 | 0.0 | 0.0 | 0.00 | 0.05 | 0.01 | 66 | 1017.0 |
| 20260901074539 | 65 | 0 | 0.0 | 0.0 | 0.00 | 0.05 | 0.01 | 66 | 1017.1 |
| 20260901073037 | 65 | 0 | 0.0 | 0.0 | 0.01 | 0.05 | 0.01 | 66 | 1017.1 |
| 20260901071553 | 65 | 0 | 0.0 | 0.0 | 0.01 | 0.05 | 0.01 | 66 | 1017.1 |
| 20260901070038 | 65 | 0 | 0.0 | 0.0 | 0.01 | 0.05 | 0.01 | 66 | 1017.3 |
| 20260901064541 | 65 | 0 | 0.0 | 0.0 | 0.01 | 0.05 | 0.01 | 66 | 1017.4 |
| 20260901063036 | 65 | 0 | 0.0 | 0.0 | 0.00 | 0.04 | 0.00 | 66 | 1017.4 |
| 20260901061537 | 65 | 0 | 0.0 | 0.0 | 0.00 | 0.04 | 0.00 | 66 | 1017.6 |
| 20260901060037 | 66 | 0 | 0.0 | 0.0 | 0.00 | 0.04 | 0.00 | 66 | 1017.6 |
| 20260901054538 | 66 | 0 | 0.0 | 0.0 | 0.00 | 0.04 | 0.00 | 66 | 1017.6 |
| 20260901053038 | 66 | 0 | 0.0 | 0.0 | 0.00 | 0.04 | 0.00 | 66 | 1017.7 |